Location: Cuzcurrita-R�o Tir�n
(42.5415°N, 2.9642°W)
Time: 19:04:09
(UTC+00:00)

USA 234 - Pass Details

Date: 17 January 2021
Orbit: 1100 x 1107 km, 123.0° (Epoch: 01 March)

Event Time Altitude Azimuth Distance (km) Brightness Sun altitude
Exits shadow 19:06:24 33° 51° (NE) 1,764 3.9 -21.7°
Maximum altitude 19:07:56 37° 23° (NNE) 1,642 3.9 -22.0°
Drops below altitude 10° 19:13:49 10° 319° (NW) 2,967 5.9 -23.1°
Sets 19:16:29 0° 312° (NW) 3,928 6.8 -23.6°
